This is the latest recevied weather packets stored in our database for station/object DG6YGE-6. If no packets are shown the sender has not sent any weather packets the latest 10 day(s).
| Time | Temp. | Humidity | Pressure | Rain* | Wind** | Luminosity | Snow |
|---|---|---|---|---|---|---|---|
| 1788565150 | 15° C | 86% | 1013.3 hPa | 0 mm | - | 0 W/m² | - |
| 1788564550 | 15° C | 86% | 1013.3 hPa | 0 mm | - | 0 W/m² | - |
| 1788563951 | 15.56° C | 86% | 1013.1 hPa | 0 mm | - | 0 W/m² | - |
| 1788563350 | 15° C | 86% | 1013.1 hPa | 0 mm | - | 0 W/m² | - |
| 1788562750 | 15.56° C | 85% | 1013 hPa | 0 mm | - | 0 W/m² | - |
| 1788562150 | 15.56° C | 85% | 1013 hPa | 0 mm | - | 0 W/m² | - |
| 1788561550 | 15.56° C | 85% | 1012.9 hPa | 0 mm | - | 0 W/m² | - |
| 1788560950 | 15.56° C | 85% | 1013 hPa | 0 mm | - | 0 W/m² | - |
| 1788559750 | 15.56° C | 84% | 1012.7 hPa | 0 mm | - | 0 W/m² | - |
| 1788559150 | 16.11° C | 84% | 1012.7 hPa | 0 mm | - | 0 W/m² | - |
| 1788558550 | 16.11° C | 84% | 1012.6 hPa | 0 mm | - | 0 W/m² | - |
| 1788557950 | 16.11° C | 84% | 1012.6 hPa | 0 mm | - | 0 W/m² | - |
| 1788557350 | 16.11° C | 84% | 1012.6 hPa | 0 mm | - | 0 W/m² | - |
| 1788556750 | 16.11° C | 84% | 1012.4 hPa | 0 mm | - | 0 W/m² | - |
| 1788556150 | 16.11° C | 84% | 1012.5 hPa | 0 mm | - | 0 W/m² | - |
| 1788555550 | 16.11° C | 83% | 1012.2 hPa | 0 mm | - | 0 W/m² | - |
| 1788554950 | 16.11° C | 83% | 1012.2 hPa | 0 mm | - | 0 W/m² | - |
| 1788554350 | 16.11° C | 84% | 1011.9 hPa | 0 mm | - | 0 W/m² | - |
| 1788553750 | 16.11° C | 84% | 1011.8 hPa | 0 mm | - | 0 W/m² | - |
| 1788553150 | 16.67° C | 87% | 1011.6 hPa | 0 mm | - | 0 W/m² | - |
| 1788552550 | 16.67° C | 89% | 1011.5 hPa | 0 mm | - | 0 W/m² | - |
| 1788551950 | 16.67° C | 90% | 1011.4 hPa | 0 mm | - | 0 W/m² | - |
| 1788551350 | 16.67° C | 89% | 1011.4 hPa | 0 mm | - | 0 W/m² | - |
| 1788550750 | 16.11° C | 89% | 1011.2 hPa | 0 mm | - | 0 W/m² | - |
| 1788550150 | 16.11° C | 90% | 1011.1 hPa | 0 mm | - | 0 W/m² | - |
* Rain latest hour (hover to see other rain measurements)
** Current wind speed in m/s (hover to see current wind gust speed)